Time,TemperatureF,DewpointF,PressureIn,WindDirection,WindDirectionDegrees,WindSpeedMPH,WindSpeedGustMPH,Humidity,HourlyPrecipIn,Conditions,Clouds,dailyrainin,SoftwareType,DateUTC
2013-05-29 00:04:00,60.7,40.0,29.44,South,179,0.0,2.0,46,0.00,,,0.00,weatherlink.com 1.10,2013-05-29 07:04:00,
2013-05-29 00:19:00,59.7,40.0,29.45,WNW,291,0.0,1.0,48,0.00,,,0.00,weatherlink.com 1.10,2013-05-29 07:19:00,
2013-05-29 00:34:00,58.8,40.0,29.45,WNW,291,1.0,2.0,50,0.00,,,0.00,weatherlink.com 1.10,2013-05-29 07:34:00,
2013-05-29 00:49:00,58.4,40.0,29.45,ENE,62,0.0,4.0,51,0.00,,,0.00,weatherlink.com 1.10,2013-05-29 07:49:00,
2013-05-29 01:04:00,57.9,41.0,29.45,ESE,108,0.0,2.0,53,0.00,,,0.00,weatherlink.com 1.10,2013-05-29 08:04:00,
2013-05-29 01:19:00,57.1,40.0,29.46,ESE,108,0.0,1.0,54,0.00,,,0.00,weatherlink.com 1.10,2013-05-29 08:19:00,
2013-05-29 01:35:00,56.2,41.0,29.46,SE,126,0.0,2.0,57,0.00,,,0.00,weatherlink.com 1.10,2013-05-29 08:35:00,
2013-05-29 01:50:00,55.1,41.0,29.46,SE,126,0.0,1.0,59,0.00,,,0.00,weatherlink.com 1.10,2013-05-29 08:50:00,
2013-05-29 02:05:00,54.6,41.0,29.46,East,88,0.0,3.0,61,0.00,,,0.00,weatherlink.com 1.10,2013-05-29 09:05:00,
2013-05-29 02:20:00,53.8,41.0,29.46,East,88,0.0,0.0,63,0.00,,,0.00,weatherlink.com 1.10,2013-05-29 09:20:00,
2013-05-29 02:35:00,52.9,41.0,29.46,East,101,0.0,4.0,64,0.00,,,0.00,weatherlink.com 1.10,2013-05-29 09:35:00,
2013-05-29 02:50:00,52.7,42.0,29.46,SE,140,0.0,2.0,66,0.00,,,0.00,weatherlink.com 1.10,2013-05-29 09:50:00,
2013-05-29 03:05:00,52.0,42.0,29.46,SE,140,0.0,1.0,68,0.00,,,0.00,weatherlink.com 1.10,2013-05-29 10:05:00,
2013-05-29 03:20:00,51.2,42.0,29.46,SSE,160,0.0,2.0,70,0.00,,,0.00,weatherlink.com 1.10,2013-05-29 10:20:00,
2013-05-29 03:35:00,50.5,42.0,29.46,SSE,160,0.0,1.0,73,0.00,,,0.00,weatherlink.com 1.10,2013-05-29 10:35:00,
2013-05-29 03:50:00,49.8,42.0,29.46,SSE,157,0.0,1.0,75,0.00,,,0.00,weatherlink.com 1.10,2013-05-29 10:50:00,
2013-05-29 04:05:00,49.1,42.0,29.46,SSE,157,0.0,1.0,77,0.00,,,0.00,weatherlink.com 1.10,2013-05-29 11:05:00,
2013-05-29 04:20:00,48.8,43.0,29.46,ESE,103,0.0,3.0,79,0.00,,,0.00,weatherlink.com 1.10,2013-05-29 11:20:00,
2013-05-29 04:35:00,48.2,42.0,29.46,ESE,103,0.0,0.0,79,0.00,,,0.00,weatherlink.com 1.10,2013-05-29 11:35:00,
2013-05-29 04:50:00,47.6,42.0,29.46,ESE,103,0.0,0.0,80,0.00,,,0.00,weatherlink.com 1.10,2013-05-29 11:50:00,
2013-05-29 05:05:00,47.0,42.0,29.47,ESE,103,0.0,2.0,83,0.00,,,0.00,weatherlink.com 1.10,2013-05-29 12:05:00,
2013-05-29 05:20:00,46.8,42.0,29.48,ESE,112,2.0,2.0,84,0.00,,,0.00,weatherlink.com 1.10,2013-05-29 12:20:00,
2013-05-29 05:35:00,46.6,42.0,29.49,ESE,112,0.0,2.0,83,0.00,,,0.00,weatherlink.com 1.10,2013-05-29 12:35:00,
2013-05-29 05:50:00,47.4,42.0,29.49,ESE,112,0.0,1.0,82,0.00,,,0.00,weatherlink.com 1.10,2013-05-29 12:50:00,
2013-05-29 06:05:00,50.5,44.0,29.49,ESE,112,0.0,0.0,77,0.00,,,0.00,weatherlink.com 1.10,2013-05-29 13:05:00,
2013-05-29 06:20:00,53.8,44.0,29.50,ESE,112,0.0,1.0,70,0.00,,,0.00,weatherlink.com 1.10,2013-05-29 13:20:00,
2013-05-29 06:35:00,58.1,44.0,29.50,ESE,112,0.0,0.0,60,0.00,,,0.00,weatherlink.com 1.10,2013-05-29 13:35:00,
2013-05-29 06:50:00,61.8,45.0,29.49,ESE,112,0.0,0.0,54,0.00,,,0.00,weatherlink.com 1.10,2013-05-29 13:50:00,
2013-05-29 07:05:00,65.6,46.0,29.50,ESE,112,0.0,0.0,49,0.00,,,0.00,weatherlink.com 1.10,2013-05-29 14:05:00,
2013-05-29 07:20:00,69.3,46.0,29.50,ESE,112,0.0,1.0,43,0.00,,,0.00,weatherlink.com 1.10,2013-05-29 14:20:00,
2013-05-29 07:35:00,70.9,44.0,29.50,ESE,111,1.0,2.0,38,0.00,,,0.00,weatherlink.com 1.10,2013-05-29 14:35:00,
2013-05-29 07:51:00,72.8,42.0,29.50,WNW,288,2.0,3.0,33,0.00,,,0.00,weatherlink.com 1.10,2013-05-29 14:51:00,
2013-05-29 08:06:00,73.9,42.0,29.50,NW,305,3.0,6.0,32,0.00,,,0.00,weatherlink.com 1.10,2013-05-29 15:06:00,
2013-05-29 08:21:00,74.9,41.0,29.50,NW,320,2.0,5.0,30,0.00,,,0.00,weatherlink.com 1.10,2013-05-29 15:21:00,
2013-05-29 08:36:00,75.8,41.0,29.51,WNW,285,3.0,5.0,29,0.00,,,0.00,weatherlink.com 1.10,2013-05-29 15:36:00,
2013-05-29 08:51:00,77.6,42.0,29.49,SW,221,2.0,5.0,28,0.00,,,0.00,weatherlink.com 1.10,2013-05-29 15:51:00,
2013-05-29 09:06:00,79.8,43.0,29.49,WSW,255,2.0,4.0,27,0.00,,,0.00,weatherlink.com 1.10,2013-05-29 16:06:00,
2013-05-29 09:21:00,80.9,45.0,29.49,SE,130,2.0,2.0,28,0.00,,,0.00,weatherlink.com 1.10,2013-05-29 16:21:00,
2013-05-29 09:36:00,81.8,44.0,29.49,East,80,1.0,5.0,26,0.00,,,0.00,weatherlink.com 1.10,2013-05-29 16:36:00,
2013-05-29 09:51:00,81.8,42.0,29.48,ESE,113,1.0,5.0,24,0.00,,,0.00,weatherlink.com 1.10,2013-05-29 16:51:00,
2013-05-29 10:06:00,82.9,44.0,29.48,SE,127,2.0,5.0,25,0.00,,,0.00,weatherlink.com 1.10,2013-05-29 17:06:00,
2013-05-29 10:21:00,81.5,42.0,29.48,North,355,1.0,3.0,25,0.00,,,0.00,weatherlink.com 1.10,2013-05-29 17:21:00,
2013-05-29 10:36:00,82.8,42.0,29.48,NE,37,3.0,4.0,24,0.00,,,0.00,weatherlink.com 1.10,2013-05-29 17:36:00,
2013-05-29 10:51:00,82.5,40.0,29.47,ESE,114,2.0,4.0,22,0.00,,,0.00,weatherlink.com 1.10,2013-05-29 17:51:00,
2013-05-29 11:06:00,83.9,37.0,29.46,East,84,0.0,8.0,19,0.00,,,0.00,weatherlink.com 1.10,2013-05-29 18:06:00,
2013-05-29 11:21:00,84.6,43.0,29.46,ESE,113,3.0,3.0,23,0.00,,,0.00,weatherlink.com 1.10,2013-05-29 18:21:00,
2013-05-29 11:36:00,86.3,41.0,29.45,SW,215,1.0,5.0,20,0.00,,,0.00,weatherlink.com 1.10,2013-05-29 18:36:00,
2013-05-29 11:51:00,87.7,43.0,29.44,SSW,211,1.0,7.0,21,0.00,,,0.00,weatherlink.com 1.10,2013-05-29 18:51:00,
2013-05-29 12:06:00,87.7,38.0,29.43,ESE,113,3.0,5.0,17,0.00,,,0.00,weatherlink.com 1.10,2013-05-29 19:06:00,
2013-05-29 12:21:00,87.5,40.0,29.43,WSW,257,4.0,7.0,19,0.00,,,0.00,weatherlink.com 1.10,2013-05-29 19:21:00,
2013-05-29 12:36:00,86.5,37.0,29.42,SW,231,1.0,8.0,17,0.00,,,0.00,weatherlink.com 1.10,2013-05-29 19:36:00,
2013-05-29 12:51:00,87.8,39.0,29.41,NW,313,5.0,15.0,18,0.00,,,0.00,weatherlink.com 1.10,2013-05-29 19:51:00,
2013-05-29 13:06:00,87.9,36.0,29.41,WNW,302,1.0,8.0,16,0.00,,,0.00,weatherlink.com 1.10,2013-05-29 20:06:00,
2013-05-29 13:21:00,86.6,43.0,29.41,SW,235,0.0,4.0,22,0.00,,,0.00,weatherlink.com 1.10,2013-05-29 20:21:00,
2013-05-29 13:36:00,87.8,38.0,29.40,SW,236,5.0,15.0,17,0.00,,,0.00,weatherlink.com 1.10,2013-05-29 20:36:00,
2013-05-29 13:51:00,89.4,41.0,29.39,West,275,4.0,15.0,18,0.00,,,0.00,weatherlink.com 1.10,2013-05-29 20:51:00,
2013-05-29 14:07:00,89.2,36.0,29.39,West,266,5.0,16.0,15,0.00,,,0.00,weatherlink.com 1.10,2013-05-29 21:07:00,
2013-05-29 14:22:00,91.1,36.0,29.38,SW,222,11.0,16.0,14,0.00,,,0.00,weatherlink.com 1.10,2013-05-29 21:22:00,
2013-05-29 14:37:00,89.8,41.0,29.38,West,267,7.0,9.0,18,0.00,,,0.00,weatherlink.com 1.10,2013-05-29 21:37:00,
2013-05-29 14:52:00,89.9,35.0,29.38,SW,233,7.0,14.0,14,0.00,,,0.00,weatherlink.com 1.10,2013-05-29 21:52:00,
2013-05-29 15:07:00,90.6,39.0,29.38,NW,317,7.0,15.0,16,0.00,,,0.00,weatherlink.com 1.10,2013-05-29 22:07:00,
2013-05-29 15:22:00,91.6,36.0,29.37,WSW,248,5.0,14.0,14,0.00,,,0.00,weatherlink.com 1.10,2013-05-29 22:22:00,
2013-05-29 15:37:00,92.4,37.0,29.37,WSW,251,9.0,12.0,14,0.00,,,0.00,weatherlink.com 1.10,2013-05-29 22:37:00,
2013-05-29 15:52:00,92.0,36.0,29.36,NNW,342,3.0,13.0,14,0.00,,,0.00,weatherlink.com 1.10,2013-05-29 22:52:00,
2013-05-29 16:07:00,91.3,36.0,29.36,WNW,294,12.0,13.0,14,0.00,,,0.00,weatherlink.com 1.10,2013-05-29 23:07:00,
2013-05-29 16:22:00,90.8,32.0,29.36,WSW,255,4.0,17.0,12,0.00,,,0.00,weatherlink.com 1.10,2013-05-29 23:22:00,
2013-05-29 16:37:00,90.9,32.0,29.36,WSW,251,9.0,13.0,12,0.00,,,0.00,weatherlink.com 1.10,2013-05-29 23:37:00,
2013-05-29 16:52:00,91.1,34.0,29.36,SSW,213,10.0,13.0,13,0.00,,,0.00,weatherlink.com 1.10,2013-05-29 23:52:00,
2013-05-29 17:07:00,90.6,35.0,29.36,West,278,3.0,13.0,14,0.00,,,0.00,weatherlink.com 1.10,2013-05-30 00:07:00,
2013-05-29 17:22:00,91.1,34.0,29.36,West,263,6.0,11.0,13,0.00,,,0.00,weatherlink.com 1.10,2013-05-30 00:22:00,
2013-05-29 17:37:00,90.5,33.0,29.36,SW,217,6.0,15.0,13,0.00,,,0.00,weatherlink.com 1.10,2013-05-30 00:37:00,
2013-05-29 17:52:00,90.0,31.0,29.36,WSW,243,4.0,12.0,12,0.00,,,0.00,weatherlink.com 1.10,2013-05-30 00:52:00,
2013-05-29 18:07:00,89.5,34.0,29.37,WSW,244,7.0,15.0,14,0.00,,,0.00,weatherlink.com 1.10,2013-05-30 01:07:00,
2013-05-29 18:22:00,88.8,34.0,29.37,SW,215,4.0,14.0,14,0.00,,,0.00,weatherlink.com 1.10,2013-05-30 01:22:00,
2013-05-29 18:37:00,87.8,33.0,29.37,WNW,302,3.0,13.0,14,0.00,,,0.00,weatherlink.com 1.10,2013-05-30 01:37:00,
2013-05-29 18:52:00,85.3,33.0,29.38,NW,306,6.0,9.0,15,0.00,,,0.00,weatherlink.com 1.10,2013-05-30 01:52:00,
2013-05-29 19:07:00,83.3,31.0,29.38,West,267,4.0,14.0,15,0.00,,,0.00,weatherlink.com 1.10,2013-05-30 02:07:00,
2013-05-29 19:22:00,82.2,32.0,29.39,West,259,3.0,12.0,16,0.00,,,0.00,weatherlink.com 1.10,2013-05-30 02:22:00,
2013-05-29 19:37:00,81.1,32.0,29.39,WNW,286,2.0,7.0,17,0.00,,,0.00,weatherlink.com 1.10,2013-05-30 02:37:00,
2013-05-29 19:52:00,80.0,31.0,29.39,WSW,252,3.0,9.0,17,0.00,,,0.00,weatherlink.com 1.10,2013-05-30 02:52:00,
2013-05-29 20:07:00,78.8,32.0,29.40,NW,312,1.0,6.0,18,0.00,,,0.00,weatherlink.com 1.10,2013-05-30 03:07:00,
2013-05-29 20:22:00,78.0,31.0,29.41,WNW,301,1.0,9.0,18,0.00,,,0.00,weatherlink.com 1.10,2013-05-30 03:22:00,
2013-05-29 20:37:00,77.4,32.0,29.42,WSW,248,2.0,9.0,19,0.00,,,0.00,weatherlink.com 1.10,2013-05-30 03:37:00,
2013-05-29 20:52:00,77.8,32.0,29.42,WSW,256,3.0,10.0,19,0.00,,,0.00,weatherlink.com 1.10,2013-05-30 03:52:00,
2013-05-29 21:07:00,77.0,33.0,29.43,NNE,20,2.0,3.0,20,0.00,,,0.00,weatherlink.com 1.10,2013-05-30 04:07:00,
2013-05-29 21:22:00,75.3,35.0,29.43,East,88,1.0,3.0,23,0.00,,,0.00,weatherlink.com 1.10,2013-05-30 04:22:00,
2013-05-29 21:37:00,72.2,36.0,29.43,East,88,0.0,2.0,27,0.00,,,0.00,weatherlink.com 1.10,2013-05-30 04:37:00,
2013-05-29 21:52:00,69.8,37.0,29.44,East,88,0.0,1.0,30,0.00,,,0.00,weatherlink.com 1.10,2013-05-30 04:52:00,
2013-05-29 22:07:00,67.8,36.0,29.44,WSW,247,0.0,3.0,31,0.00,,,0.00,weatherlink.com 1.10,2013-05-30 05:07:00,
2013-05-29 22:22:00,68.1,38.0,29.44,ESE,107,3.0,5.0,33,0.00,,,0.00,weatherlink.com 1.10,2013-05-30 05:22:00,
2013-05-29 22:37:00,67.5,37.0,29.45,South,190,0.0,2.0,33,0.00,,,0.00,weatherlink.com 1.10,2013-05-30 05:37:00,
2013-05-29 22:52:00,65.9,37.0,29.45,East,99,0.0,2.0,35,0.00,,,0.00,weatherlink.com 1.10,2013-05-30 05:52:00,
2013-05-29 23:07:00,64.5,37.0,29.45,SSE,161,0.0,2.0,37,0.00,,,0.00,weatherlink.com 1.10,2013-05-30 06:07:00,
2013-05-29 23:22:00,63.1,38.0,29.46,SW,218,2.0,3.0,39,0.00,,,0.00,weatherlink.com 1.10,2013-05-30 06:22:00,
2013-05-29 23:37:00,62.5,37.0,29.46,SSE,155,2.0,3.0,39,0.00,,,0.00,weatherlink.com 1.10,2013-05-30 06:37:00,
2013-05-29 23:52:00,62.3,38.0,29.47,ESE,105,5.0,5.0,40,0.00,,,0.00,weatherlink.com 1.10,2013-05-30 06:52:00,